Oak Ridge, TN

3:48 PM EDT on May 26, 2018 (GMT -0400)
Oak Ridge

Weather History for KOQT - February, 2014

Change the Weather History Date:

Monday, February 10, 2014

  Actual Average (KTYS) Record (KTYS)
Temperature  
Mean Temperature 34 °F -  
Max Temperature 39 °F 49 °F 73 °F (1932)
Min Temperature 28 °F 26 °F -3 °F (1899)
Degree Days  
Heating Degree Days 30    
Moisture  
Dew Point 24 °F    
Average Humidity 65    
Maximum Humidity 79    
Minimum Humidity 50    
Precipitation  
Precipitation 0.00 in - - ()
Sea Level Pressure  
Sea Level Pressure 30.23 in    
Wind  
Wind Speed 5 mph (NE)    
Max Wind Speed 12 mph    
Max Gust Speed 17 mph    
Visibility 10 miles    
Events      
Averages and records for this station are not official NWS values.
T = Trace of Precipitation, MM = Missing Value Source: NWS Daily Summary

Daily Weather History Graph

Daily Weather History Graph

Search for Another Location

Airport or City:

Astronomy

Feb. 10, 2014 Rise Set
Actual Time 7:29 AM EST 6:13 PM EST
Civil Twilight 7:03 AM EST 6:39 PM EST
Nautical Twilight 6:32 AM EST 7:10 PM EST
Astronomical Twilight 6:02 AM EST 7:39 PM EST
Moon 2:44 PM EST (2/10) 4:18 AM EST (2/10)
Length of Visible Light 11h 36m
Length of Day
10h 43m
Waxing Gibbous, 84% of the Moon is Illuminated
Feb 10
Waxing Gibbous
Feb 14
Full
Feb 22
Last Quarter
Mar 1
New
Mar 8
First Quarter

Hourly Weather History & Observations

Time (EST) Temp. Windchill Dew Point Humidity Pressure Visibility Wind Dir Wind Speed Gust Speed Precip Events Conditions
12:13 AM 37.0 °F 33.3 °F 30.9 °F 79% 30.14 in 10.0 mi NE 4.6 mph - N/A   Overcast
12:53 AM 37.0 °F 33.3 °F 30.9 °F 79% 30.18 in 10.0 mi Variable 4.6 mph - N/A   Overcast
1:53 AM 36.0 °F 33.3 °F 30.0 °F 79% 30.18 in 10.0 mi Variable 3.5 mph - N/A   Overcast
2:53 AM 35.1 °F 30.1 °F 28.9 °F 78% 30.19 in 10.0 mi NE 5.8 mph - N/A   Overcast
3:53 AM 35.1 °F 32.2 °F 28.0 °F 76% 30.18 in 10.0 mi Variable 3.5 mph - N/A   Overcast
4:53 AM 34.0 °F 29.8 °F 27.0 °F 75% 30.17 in 10.0 mi ENE 4.6 mph - N/A   Overcast
5:53 AM 33.1 °F 27.7 °F 27.0 °F 78% 30.19 in 10.0 mi NE 5.8 mph - N/A   Overcast
6:53 AM 33.1 °F 26.9 °F 26.1 °F 75% 30.19 in 10.0 mi NE 6.9 mph - N/A   Overcast
7:53 AM 33.1 °F 28.7 °F 25.0 °F 72% 30.22 in 10.0 mi Variable 4.6 mph - N/A   Overcast
8:39 AM 33.1 °F 27.7 °F 23.0 °F 66% 30.18 in 10.0 mi Variable 5.8 mph - N/A   Overcast
8:53 AM 33.1 °F 28.7 °F 24.1 °F 70% 30.24 in 10.0 mi Variable 4.6 mph - N/A   Overcast
9:53 AM 34.0 °F 29.8 °F 25.0 °F 70% 30.26 in 10.0 mi Variable 4.6 mph - N/A   Overcast
10:53 AM 36.0 °F 31.1 °F 25.0 °F 64% 30.26 in 10.0 mi Variable 5.8 mph - N/A   Overcast
11:53 AM 36.0 °F 28.0 °F 25.0 °F 64% 30.26 in 10.0 mi ENE 11.5 mph - N/A   Overcast
12:53 PM 37.0 °F 31.0 °F 24.1 °F 59% 30.24 in 10.0 mi East 8.1 mph - N/A   Overcast
1:53 PM 37.9 °F 32.7 °F 23.0 °F 55% 30.24 in 10.0 mi Variable 6.9 mph - N/A   Overcast
2:53 PM 39.0 °F 32.8 °F 24.1 °F 55% 30.22 in 10.0 mi ENE 9.2 mph 17.3 mph N/A   Mostly Cloudy
3:53 PM 39.0 °F 34.0 °F 21.9 °F 50% 30.23 in 10.0 mi Variable 6.9 mph 17.3 mph N/A   Mostly Cloudy
4:53 PM 37.0 °F 32.4 °F 21.9 °F 54% 30.24 in 10.0 mi Variable 5.8 mph - N/A   Partly Cloudy
5:53 PM 35.1 °F 29.3 °F 21.0 °F 57% 30.26 in 10.0 mi NNE 6.9 mph - N/A   Clear
6:53 PM 33.1 °F 30.0 °F 19.9 °F 59% 30.29 in 10.0 mi Variable 3.5 mph - N/A   Clear
7:53 PM 32.0 °F 27.5 °F 19.0 °F 59% 30.29 in 10.0 mi Variable 4.6 mph - N/A   Clear
8:53 PM 30.9 °F 25.2 °F 18.0 °F 59% 30.30 in 10.0 mi NE 5.8 mph - N/A   Clear
9:53 PM 30.0 °F 25.2 °F 16.0 °F 56% 30.31 in 10.0 mi NE 4.6 mph - N/A   Clear
10:53 PM 30.0 °F 25.2 °F 16.0 °F 56% 30.30 in 10.0 mi NE 4.6 mph - N/A   Clear
11:53 PM 28.9 °F 22.8 °F 15.1 °F 56% 30.30 in 10.0 mi NE 5.8 mph - N/A   Partly Cloudy